Regional Weather Roundup
Issued by NWS Sterling, VA

Home | Current Version | Previous Version | Graphics & Text | Print | Product List | Glossary On
Versions: 1 2 3 4 5 6 7 8 9 10 11 12 13 14 15 16 17 18 19 20 21 22 23 24 25 26 27 28 29 30 31 32 33 34 35 36 37 38 39 40 41 42 43 44 45 46 47 48 49 50
000
ASUS41 KLWX 281210
RWRLWX

REGIONAL WEATHER ROUNDUP
NATIONAL WEATHER SERVICE BALTIMORE MD/WASHINGTON DC
800 AM EDT MON JUL 28 2014

Note: "FAIR" indicates few or no clouds below 12,000 feet
with no significant weather and/or obstructions to visibility.
 TC=TEMPERATURE CELSIUS

 * =Non NWS site. Station does not report precipitation (e.g. rain,
    snow, etc.), thunder, or fog.

DCZ001-MDZ009-015-VAZ040>042-051-053>054-281300-
WASHINGTON METRO
  /KDAA//-FT BELVOIR

CITY           SKY/WX    TMP DP  RH WIND       PRES   REMARKS
WASHINGTON NAT MOSUNNY   79  70  74 SW9       29.62R
DULLES         MOSUNNY   71  67  87 SW5       29.64R
ANDREWS AFB    SUNNY     78  72  83 W8        29.62S
QUANTICO       MOSUNNY   78  66  66 W13       29.64R
COLLEGE PARK*  SUNNY     77  70  78 CALM      29.61R
LEESBURG*      MOSUNNY   77  68  73 W7        29.65R
GAITHERSBURG*  SUNNY     72  66  83 W5        29.67R

$$

MDZ006>007-011-014-281300-
BALTIMORE METRO

CITY           SKY/WX    TMP DP  RH WIND       PRES   REMARKS
BWI AIRPORT    MOSUNNY   75  70  84 SW7       29.60S
MD SCIENCE CTR   N/A     77  68  73 MISG      29.60S
ANNAPOLIS      SUNNY     78  70  76 VRB7      29.60S
FORT MEADE*    SUNNY     70  68  94 SW3       29.63S

$$

MDZ012-015-019>023-281300-
MARYLAND EASTERN SHORE

CITY           SKY/WX    TMP DP  RH WIND       PRES   REMARKS
OCEAN CITY     SUNNY     80  74  81 W9        29.61R
SALISBURY      NOT AVBL
BAY BRIDGE AP*   N/A     77  72  83 W9        29.60S
CAMBRIDGE*     SUNNY     79  72  78 SW6       29.61S
EASTON*        SUNNY     81  75  83 W6        29.64R

$$

MDZ017>025-281300-
SOUTHERN MARYLAND

CITY           SKY/WX    TMP DP  RH WIND       PRES   REMARKS
PATUXENT RIVER MOSUNNY   78  70  76 W13       29.62S
ST INIGOES     SUNNY     79  69  71 W10       29.62S
LEONARDTOWN*   SUNNY     77  68  73 W7        29.65R

$$

MDZ003>005-281300-
NORTH CENTRAL MARYLAND

CITY           SKY/WX    TMP DP  RH WIND       PRES   REMARKS
FREDERICK*     PTSUNNY   75  70  83 W12G17    29.65R
HAGERSTOWN APT SUNNY     71  64  78 W10       29.63R
WESTMINSTER*   SUNNY     70  66  88 W10       29.62R

$$

MDZ501>502-281300-
WESTERN MARYLAND

CITY           SKY/WX    TMP DP  RH WIND       PRES   REMARKS
OAKLAND*       CLOUDY    57 N/A N/A W9G21     29.77R
CUMBERLAND*    PTSUNNY   72  63  73 N3        29.71R

$$

VAZ025>031-281300-
SHENANDOAH VALLEY

CITY           SKY/WX    TMP DP  RH WIND       PRES   REMARKS
WINCHESTER*    PTSUNNY   72  63  73 W15       29.66R
STAUNTON*      SUNNY     74  56  52 W8        29.72S

$$

WVZ021-048>050-054>055-281300-
EASTERN WEST VIRGINIA PANHANDLE

CITY           SKY/WX    TMP DP  RH WIND       PRES   REMARKS
MARTINSBURG    CLOUDY    73  61  65 W12       29.65R
PETERSBURG*    MOSUNNY   70  54  56 W16       29.71R

$$

VAZ036>039-050-281300-
CENTRAL FOOTHILLS

CITY           SKY/WX    TMP DP  RH WIND       PRES   REMARKS
CHARLOTTESVILL MOSUNNY   76  61  59 SW9       29.68R
ORANGE*        SUNNY     77  63  61 SW7       29.68R

$$

VAZ055>057-281300-
NORTH AND CENTRAL PIEDMONT

CITY           SKY/WX    TMP DP  RH WIND       PRES   REMARKS
FREDERICKSBRG* SUNNY     78  68  72 SW8       29.64R
STAFFORD*      SUNNY     77  67  71 W7        29.69R

$$

NCZ024-NYZ072-PAZ021-071-VAZ022-071-281300-
OTHER REGIONAL OBSERVATIONS

CITY           SKY/WX    TMP DP  RH WIND       PRES   REMARKS
NEW YORK CITY  CLOUDY    71  67  87 VRB3      29.58F
PHILADELPHIA   PTSUNNY   73  69  87 W10       29.58R
PITTSBURGH     CLOUDY    63  60  90 W9        29.72R
ROANOKE        MOSUNNY   73  58  59 W7        29.78S
RICHMOND       MOSUNNY   81  67  62 W12       29.67R
RALEIGH        MOSUNNY   75  64  68 W6        29.78R

$$

ANZ530>537-281300-
MARINE OBSERVATIONS

STATION/POSITION TIME  TEMP    WIND        PRES
                       AIR SEA DIR/SP/G
                 (UTC) (F)     (DEG/KT/KT) (MB)
THOMAS PT LIGHT  1200   78 79  240/ 14/ 16 1003.0R
BALT KEY BRIDGE  1200          210/ 10/ 12 1001.8R
COVE POINT       1200   78     280/ 10/ 13 1003.0R
LEWISETTA        1200   78 79  280/ 13/ 17 1003.1R
SOLOMONS ISLAND  1200      80                N/A
PINEY POINT      1200          290/ 14/ 17   N/A

$$



USA.gov is the U.S. government's official web portal to all federal, state and local government web resources and services.